Regional Weather Roundup
Issued by NWS

Home | Current Version | Previous Version | Text Only | Print | Product List | Glossary Off
Versions: 1 2 3 4 5 6 7 8 9 10 11 12 13 14 15 16 17 18 19 20 21 22 23 24 25 26 27

000
ASUS45 KTFX 271310
RWRMT
MONTANA REGIONAL WEATHER ROUNDUP
NATIONAL WEATHER SERVICE GREAT FALLS MT
700 AM MDT WED JUL 27 2016

NOTE: "FAIR" INDICATES FEW OR NO CLOUDS BELOW 12000 FEET WITH NO
SIGNIFICANT WEATHER AND/OR OBSTRUCTIONS TO VISIBILITY.

MTZ001>007-043-271400-
WEST OF THE DIVIDE

CITY           SKY/WX    TMP DP  RH WIND       PRES   REMARKS
KALISPELL      PTCLDY    56  52  86 MISG      30.12R
MISSOULA       CLEAR     56  50  80 CALM      30.15R
BUTTE          CLEAR     42  38  85 SE6       30.26R
MULLAN PASS    CLEAR     62  43  49 SE7       30.25R
ANACONDA         N/A     54  45  71 S5        30.22R
DEER LODGE       N/A     50  46  87 CALM      30.24R
EUREKA           N/A     55  52  88 CALM      30.14R
HAMILTON         N/A     59  46  63 CALM      30.15R
LIBBY            N/A     52  48  87 CALM      30.14R
PLAINS           N/A     53  46  77 CALM      30.11R
RONAN            N/A     53  50  90 CALM      30.16R
$$

MTZ008-052>055-271400-
SOUTHWEST MONTANA

CITY           SKY/WX    TMP DP  RH WIND       PRES   REMARKS
BOZEMAN        CLEAR     51  44  77 E3        30.20R
DILLON         CLEAR     49  42  77 S7        30.23R
W YELLOWSTONE  CLOUDY    39  34  81 CALM      30.33R
ENNIS          CLEAR     46  39  76 CALM      30.28R
THREE FORKS      N/A     47   1  15 CALM      30.17R
TWIN BRIDGES     N/A     45  37  73 CALM      30.19R
$$

MTZ009-010-012-014-046-048-049-054-271400-
EAST SLOPES AND CENTRAL MONTANA

CITY           SKY/WX    TMP DP  RH WIND       PRES   REMARKS
CUT BANK       CLEAR     52  51  97 NW7       30.17R
GREAT FALLS    CLEAR     57  54  89 E5        30.18R
MALMSTROM AFB  CLEAR     55  54  97 S3        30.17S
HELENA         CLEAR     59  51  75 CALM      30.18R
CHOTEAU          N/A     54  52  94 CALM      30.21R
CONRAD           N/A     50  50 100 E2        30.18R
$$

MTZ011-013-016-021-045-047-050-051-271400-
NORTH CENTRAL MONTANA

CITY           SKY/WX    TMP DP  RH WIND       PRES   REMARKS
HAVRE          CLOUDY    61  60  97 E6        30.13R
LEWISTOWN      CLEAR     54  50  86 W3        30.19R
N BAR RANCH      N/A     55  52  88 W6        30.21R
CHINOOK          N/A     61  61 100 CALM      30.13R
$$

MTZ017>020-022>027-061-062-271400-
NORTHEAST MONTANA

CITY           SKY/WX    TMP DP  RH WIND       PRES   REMARKS
GLASGOW        RAIN      62  60  93 NE6       30.11F FOG
JORDAN           N/A     62  59  90 N7        30.12R
SIDNEY         LGT RAIN  64  60  87 N3        30.10S
WOLF POINT     CLOUDY    64  61  90 CALM      30.12R
PLENTYWOOD       N/A     63  55  77 NE5       30.12S
SCOBEY           N/A     61  52  72 CALM      30.12R
$$

MTZ028>42-056>058-271400-
SOUTHCENTRAL AND SOUTHEAST MONTANA

CITY           SKY/WX    TMP DP  RH WIND       PRES   REMARKS
BAKER          CLOUDY    62  59  90 NE6       30.14R
BILLINGS       MOSUNNY   62  57  83 NW9       30.14R
LIVINGSTON     CLEAR     52  44  74 CALM      30.19R
MILES CITY     LGT RAIN  66  58  75 E7        30.07F
EKALAKA          N/A     62  59  90 SE9       30.09F
FORSYTH          N/A     64  61  88 CALM      30.08R
LAUREL           N/A     62  54  75 W3        30.12R
ROUNDUP          N/A     60  54  80 CALM      30.06R
$$

REGIONAL REPORTS...DAKOTAS

CITY           SKY/WX    TMP DP  RH WIND       PRES   REMARKS
WILLISTON      CLOUDY    63  54  72 N6        30.11F
MINOT          SUNNY     64  58  80 CALM      30.11S
DICKINSON      PTSUNNY   58  56  93 CALM      30.11F
BEACH          PTSUNNY   61  61 100 N7        30.16S
CROSBY           N/A     55  55 100 E6        30.16S
WATFORD CITY     N/A    N/A N/A N/A MISG        N/A
BISMARCK       MOSUNNY   65  62  90 CALM      30.10R
GRAND FORKS    MOSUNNY   63  58  83 N9        30.06R
FARGO          CLOUDY    65  61  87 N12       30.02R
BUFFALO SD       N/A     63  61  93 NE9       30.07R
RAPID CITY     CLOUDY    66  62  87 CALM      30.14R
$$

REGIONAL REPORTS...WYOMING/IDAHO/WASHINGTON

CITY           SKY/WX    TMP DP  RH WIND       PRES   REMARKS
GILLETTE       MOSUNNY   66  52  60 CALM      30.15R
SHERIDAN       SUNNY     65  52  62 VRB5      30.14R
BUFFALO WY     SUNNY     65  52  62 NE5       30.20S
CODY           CLEAR     61  45  55 SW7       30.21F
YELLOWSTONE LA   N/A     40  35  83 CALM      30.40R
IDAHO FALLS    CLEAR     50  43  77 N7        30.17R
SALMON         CLEAR     48  43  81 CALM      30.19R
BOISE          CLEAR     69  41  36 S9        30.03R
SPOKANE        PTCLDY    63  52  67 NE6       30.06R
$$

REGIONAL REPORTS...ALBERTA

CITY           SKY/WX    TMP DP  RH WIND       PRES   REMARKS
EDMONTON       CLEAR     59  55  88 SW2       30.11R
CALGARY        PTCLDY    59  54  82 CALM      30.17R
LETHBRIDGE     MOCLDY    55  55 100 S3        30.15R
MEDICINE HAT   CLOUDY    61  61 100 VRB2      30.13R FOG
WATERTON GATE    N/A     50  48  93 SW6         N/A
MILK RIVER       N/A     54  52  94 NW9         N/A
ONEFOUR          N/A     61  57  88 E7          N/A
$$

REGIONAL REPORTS...SASKATCHEWAN

CITY           SKY/WX    TMP DP  RH WIND       PRES   REMARKS
SWIFT CURRENT  MOSUNNY   57  54  88 E10       30.16R
REGINA         PTSUNNY   61  54  77 E5        30.17R
SASKATOON      PTSUNNY   59  55  88 CALM      30.19R
CYPRESS HILLS    N/A     55  54  94 SE5         N/A
VAL MARIE        N/A     61  59  94 NE5         N/A
ASSINIBOIA       N/A     57  55  94 S6          N/A
$$




USA.gov is the U.S. government's official web portal to all federal, state and local government web resources and services.